Wind_Speed
22 21 21 21 22 23 24 23 23 22 21 20 19 19 19 19 18 19 20 19 19 19 19 18 18 18 19 19 20 20 20 21 21 21 22 23 23 24 25 24 25 25 24 24
24 24 23 22 22 23 23 24 24 23 22 21 20 20 20 20 20 20 20 20 20 20 21 21 21 20 20 21 21 21 22 23 23 23 23 24 25 25 26 26 26 26 26 25
27 26 25 25 23 24 23 23 23 23 23 23 22 21 21 21 22 21 21 22 22 21 21 22 22 22 23 23 23 23 25 25 25 25 25 26 26 26 27 27 27 27 26 26
29 29 29 27 25 25 25 23 23 24 24 24 24 24 23 23 23 22 23 23 23 23 24 24 24 24 24 25 25 25 26 26 26 27 27 27 27 27 27 27 27 27 27 26
30 31 30 28 27 27 26 25 24 25 25 25 26 26 26 25 24 24 24 24 25 25 24 25 26 26 26 27 28 28 27 27 27 27 27 28 28 27 28 28 28 27 27 28
30 30 30 28 27 27 27 26 25 26 26 26 26 27 27 26 26 26 26 26 27 27 26 26 27 28 28 28 28 28 27 27 28 28 28 28 29 29 29 29 29 29 28 28
30 30 30 28 27 27 27 27 26 26 26 26 26 26 26 26 26 26 27 27 27 27 28 29 29 28 28 28 28 28 28 28 28 28 29 29 30 30 30 30 30 30 29 29
31 31 30 28 28 28 28 27 26 26 26 27 27 27 27 27 27 27 27 27 27 28 29 30 30 29 29 29 29 29 28 28 29 29 29 30 30 31 31 31 31 31 30 30
32 32 31 30 29 29 28 28 28 28 28 28 28 29 28 28 28 28 28 28 28 28 29 30 30 30 29 29 30 30 30 30 30 30 30 31 31 32 32 32 32 32 32 32
32 32 32 31 30 30 29 29 29 29 29 29 29 29 29 28 28 28 28 29 29 30 30 29 29 31 31 31 31 31 31 31 31 31 31 32 33 33 33 33 33 33 33 33
32 32 31 30 29 30 30 30 30 30 29 29 28 28 29 29 29 29 29 29 30 31 30 29 30 30 32 32 31 31 31 30 31 32 33 33 33 34 34 34 33 33 33 34
31 31 31 30 30 30 30 30 30 29 29 28 28 28 28 29 29 29 29 29 29 29 29 30 31 32 32 31 31 30 31 31 32 33 34 34 34 34 34 34 33 33 34 33
30 29 30 30 30 30 29 29 29 28 28 28 28 28 29 29 29 30 30 30 30 30 30 32 32 31 31 31 31 31 32 32 33 34 34 34 34 34 34 34 34 34 34 34
29 29 28 28 28 28 27 28 28 28 28 28 27 28 28 28 29 30 31 32 32 32 31 31 31 30 30 31 31 32 32 33 33 34 34 34 34 33 33 33 33 34 34 33
28 28 27 27 27 28 28 28 28 28 27 27 27 27 28 28 29 30 31 32 33 33 32 31 31 32 32 32 32 32 32 32 33 33 33 34 34 34 33 33 34 34 33 31
27 27 27 27 27 27 26 26 27 28 28 27 27 27 28 29 30 30 31 32 33 33 33 32 32 33 33 33 32 32 33 33 34 34 33 33 34 34 34 33 33 32 31 30
25 26 26 26 26 26 25 25 26 27 27 28 28 28 28 29 30 30 31 31 31 31 32 32 33 33 33 32 32 32 32 33 34 33 32 32 32 32 32 32 31 30 30 29
24 24 24 25 25 25 25 26 26 27 28 28 27 27 28 28 28 28 30 30 30 30 30 30 30 30 30 30 31 31 32 31 31 31 30 30 30 30 30 30 29 29 28 28
23 24 25 25 25 26 26 26 26 26 26 26 26 26 26 28 28 29 29 29 29 29 29 30 29 28 28 28 29 29 29 29 29 29 29 29 30 29 28 28 27 26 26 27
25 25 25 25 25 25 24 24 25 25 25 26 26 28 28 29 29 29 28 28 28 28 28 28 28 28 28 28 28 28 28 28 27 28 28 28 27 27 26 26 26 26 26 26
24 24 24 24 24 24 24 24 24 25 25 26 28 28 29 29 29 28 28 28 27 27 27 26 26 27 27 27 27 28 27 27 27 26 26 26 26 25 25 26 26 26 25 26
22 22 23 23 23 23 24 24 24 25 26 27 28 28 28 28 28 27 28 28 27 27 26 26 26 27 27 27 27 27 26 26 27 26 25 26 26 25 25 25 25 26 26 26
22 22 21 21 23 24 24 24 25 26 27 27 28 28 27 27 27 27 27 27 27 26 25 25 26 26 27 26 26 26 26 26 26 26 26 26 26 26 25 25 25 26 26 26
21 22 22 23 24 24 24 24 25 26 26 25 25 26 25 25 26 26 26 25 25 25 24 25 26 26 26 26 26 26 26 26 26 26 26 26 26 26 26 25 26 26 26 26
21 22 22 22 22 22 22 22 23 23 23 24 24 24 24 23 23 23 23 23 24 24 24 25 25 25 25 26 25 26 26 26 27 27 26 25 25 26 26 26 26 26 26 25
19 19 19 19 19 20 21 22 22 22 22 22 22 22 22 22 21 21 21 22 23 23 24 24 24 25 25 25 24 25 26 26 27 26 26 25 25 26 26 26 26 26 25 25
17 17 17 17 18 19 20 20 19 19 19 20 20 20 20 20 20 20 21 22 22 23 23 24 24 24 24 24 24 25 26 26 26 25 25 25 26 26 26 26 26 25 25 25
Wind_Direction
262 262 264 266 267 269 271 273 276 280 281 283 283 284 285 287 287 287 287 288 293 297 295 296 297 297 298 300 300 302 303 304 303 303 305 304 303 303 303 302 304 303 302 302
261 262 267 268 269 269 270 271 273 276 278 279 279 282 284 285 284 285 285 288 291 292 294 292 293 295 296 297 298 299 300 301 302 303 303 302 302 302 303 302 302 303 301 300
263 262 265 267 270 271 271 271 271 272 275 278 279 281 283 284 283 283 283 284 286 288 290 289 290 292 293 295 295 296 298 298 299 301 302 301 301 300 300 299 300 300 300 300
264 265 266 269 270 271 272 272 272 272 274 276 278 280 281 283 284 283 284 285 284 285 284 286 288 287 289 291 292 294 296 299 300 300 300 300 300 300 299 299 300 299 298 298
265 267 269 269 271 271 271 273 273 273 274 275 277 279 281 282 283 284 284 285 284 281 282 284 285 286 288 289 290 292 293 297 298 298 298 298 298 298 298 298 298 298 298 297
264 266 268 270 272 273 274 274 274 274 274 275 277 278 280 281 282 283 284 285 283 282 281 282 285 287 289 290 291 292 293 295 296 297 296 296 296 296 296 296 297 297 296 295
263 265 268 270 272 275 275 276 275 275 274 274 277 278 279 279 281 281 282 282 281 281 282 282 284 287 287 289 291 292 293 293 294 295 295 295 294 295 295 296 296 296 296 295
263 265 267 269 271 272 273 273 274 273 273 274 277 278 279 281 282 282 281 281 281 281 282 282 283 285 286 289 290 291 292 293 294 295 296 295 295 295 296 296 296 296 296 295
262 264 266 268 269 270 270 271 273 272 273 276 277 278 280 282 283 284 283 281 280 279 281 284 286 287 287 288 288 289 290 291 292 293 294 295 294 295 295 295 296 296 295 294
263 264 266 267 269 269 268 271 273 274 276 279 280 280 281 282 284 284 283 283 281 281 281 282 287 288 288 289 288 288 289 290 291 292 293 294 294 294 294 295 295 295 294 294
264 265 265 266 266 268 270 272 275 276 277 278 279 281 281 281 284 285 283 283 283 283 284 286 288 290 289 288 288 287 288 290 291 292 293 294 294 295 295 295 295 295 294 294
264 266 267 267 267 267 270 272 276 278 277 278 279 281 283 283 283 283 284 285 287 286 287 287 288 289 290 289 289 290 291 291 293 294 294 295 295 295 295 294 294 293 294 293
264 265 266 267 268 269 270 272 274 276 278 278 280 281 282 281 281 283 286 288 289 288 288 289 290 290 291 291 291 292 293 294 295 295 295 295 295 294 293 293 293 293 293 292
262 263 265 265 267 268 268 271 273 276 278 278 280 282 283 282 283 284 284 286 288 289 290 291 291 291 293 293 294 293 293 294 294 295 295 295 295 295 294 294 293 293 293 292
262 263 264 266 267 268 269 271 273 275 278 279 281 282 282 283 284 285 287 287 288 290 292 292 292 293 294 294 294 294 294 294 295 295 295 295 295 295 295 294 294 293 292 290
263 265 266 268 269 270 271 273 275 277 279 281 281 281 282 285 286 287 290 291 291 292 293 293 294 294 295 294 294 294 294 294 294 294 294 295 295 295 295 295 294 294 292 289
263 265 267 268 269 271 273 275 276 279 280 281 282 283 284 285 287 288 290 293 295 295 295 296 296 296 297 296 295 294 294 293 293 293 294 294 296 297 296 295 294 294 293 290
266 268 270 270 271 272 273 275 278 280 281 281 282 283 284 286 288 290 291 293 295 296 297 298 297 297 298 297 297 296 294 294 294 293 295 295 295 296 297 297 296 294 293 292
266 268 271 270 273 277 278 277 277 279 280 281 282 283 285 286 289 292 294 294 294 296 297 297 298 299 300 300 300 300 302 299 295 295 296 296 297 296 297 297 296 296 296 293
266 268 270 271 276 279 280 279 278 277 279 281 282 284 286 287 289 292 293 294 295 295 296 297 299 300 301 301 302 303 304 304 302 299 297 298 299 300 299 299 298 296 296 297
268 270 271 274 277 279 279 279 278 279 280 282 284 286 287 287 288 290 292 294 295 295 297 298 299 300 301 302 303 304 303 303 303 302 301 301 302 302 301 301 300 297 296 297
271 272 273 275 277 278 279 279 279 280 281 283 284 286 287 287 288 291 293 293 294 295 296 297 298 299 301 303 304 304 304 304 304 303 303 302 302 302 302 301 300 299 299 298
271 272 275 275 275 276 277 278 279 281 283 283 285 286 286 288 290 292 293 294 294 295 296 296 298 300 301 302 303 304 304 304 304 303 303 303 302 302 302 301 300 300 301 300
272 274 276 278 277 276 276 278 279 282 285 286 288 290 290 290 292 293 294 295 295 295 296 297 298 298 299 300 302 304 305 305 305 303 304 304 303 303 303 302 302 302 303 302
274 277 279 279 277 279 281 283 284 284 286 289 290 291 292 294 297 298 297 297 296 296 297 298 298 298 299 301 302 302 304 306 305 303 303 304 304 304 304 303 303 303 303 302
274 275 278 279 282 285 286 287 288 289 290 291 293 294 295 297 299 298 298 299 298 299 300 300 299 300 301 302 302 302 303 304 303 303 305 305 305 305 305 305 304 305 304 303
276 277 279 281 285 288 290 291 292 292 294 295 295 295 296 297 299 300 301 301 301 301 302 302 302 302 301 301 303 304 305 305 305 306 307 307 307 307 307 307 307 306 305 303
Height
5866 5867 5867 5868 5868 5868 5868 5868 5868 5868 5868 5868 5867 5866 5865 5864 5863 5862 5861 5859 5858 5857 5855 5854 5852 5851 5849 5848 5846 5844 5842 5841 5839 5837 5834 5832 5830 5827 5825 5823 5821 5819 5817 5815
5860 5861 5862 5862 5863 5863 5863 5863 5863 5863 5863 5862 5862 5861 5860 5859 5858 5857 5856 5855 5854 5852 5851 5849 5848 5846 5844 5842 5840 5838 5837 5835 5833 5831 5828 5826 5824 5821 5819 5817 5815 5812 5810 5808
5854 5855 5855 5857 5858 5857 5857 5857 5857 5857 5858 5856 5856 5855 5855 5854 5853 5852 5851 5850 5848 5846 5845 5843 5842 5840 5838 5836 5835 5833 5831 5828 5826 5824 5822 5819 5817 5814 5812 5810 5808 5806 5803 5801
5847 5848 5849 5853 5851 5851 5851 5851 5851 5851 5851 5850 5850 5849 5849 5848 5847 5846 5844 5843 5841 5840 5838 5836 5835 5833 5832 5830 5828 5826 5824 5822 5819 5817 5815 5812 5810 5807 5805 5803 5801 5799 5796 5794
5840 5840 5841 5844 5844 5844 5844 5844 5844 5844 5844 5844 5843 5843 5842 5841 5840 5839 5838 5836 5834 5832 5831 5830 5828 5827 5825 5823 5821 5819 5817 5815 5812 5810 5807 5805 5803 5800 5798 5796 5794 5791 5789 5787
5833 5833 5834 5838 5837 5837 5838 5837 5837 5837 5837 5837 5836 5836 5835 5834 5833 5831 5830 5829 5827 5825 5824 5822 5821 5819 5818 5816 5814 5812 5809 5807 5804 5802 5800 5797 5795 5793 5790 5788 5786 5784 5781 5779
5825 5826 5827 5829 5829 5830 5831 5831 5830 5830 5830 5829 5829 5829 5828 5826 5825 5823 5822 5821 5819 5818 5817 5815 5813 5811 5809 5807 5805 5803 5801 5798 5796 5794 5792 5789 5787 5785 5783 5780 5778 5776 5774 5771
5817 5819 5822 5821 5822 5823 5823 5822 5822 5823 5822 5822 5821 5820 5820 5819 5818 5816 5815 5813 5811 5810 5808 5807 5805 5802 5801 5799 5796 5794 5793 5790 5788 5786 5783 5781 5779 5777 5774 5772 5770 5767 5765 5763
5810 5813 5813 5814 5814 5814 5814 5814 5814 5814 5814 5814 5814 5813 5812 5811 5810 5808 5806 5805 5803 5801 5800 5798 5796 5794 5792 5790 5788 5786 5784 5782 5780 5777 5775 5773 5770 5768 5766 5763 5761 5759 5756 5754
5801 5803 5804 5805 5806 5806 5806 5807 5806 5806 5806 5806 5805 5805 5804 5802 5801 5800 5798 5796 5794 5792 5790 5789 5787 5785 5783 5782 5780 5778 5775 5773 5771 5769 5766 5764 5761 5759 5756 5754 5751 5749 5747 5744
5793 5794 5795 5797 5797 5798 5799 5799 5799 5798 5798 5798 5797 5796 5795 5794 5792 5791 5789 5788 5786 5784 5782 5780 5779 5777 5775 5773 5771 5769 5766 5764 5762 5760 5757 5754 5752 5749 5746 5744 5741 5739 5736 5734
5785 5786 5787 5788 5788 5789 5790 5791 5790 5790 5790 5789 5788 5787 5786 5785 5784 5782 5781 5779 5777 5775 5773 5772 5770 5768 5766 5763 5761 5759 5757 5755 5753 5750 5748 5745 5742 5739 5736 5734 5731 5729 5726 5724
5776 5777 5778 5779 5780 5781 5781 5782 5782 5781 5781 5781 5780 5779 5778 5776 5775 5774 5772 5770 5769 5767 5765 5763 5761 5759 5757 5755 5752 5750 5748 5746 5743 5741 5738 5735 5732 5729 5727 5724 5721 5719 5716 5713
5768 5769 5770 5771 5772 5772 5773 5773 5774 5773 5773 5772 5772 5771 5769 5768 5766 5765 5763 5761 5759 5758 5756 5754 5752 5750 5748 5745 5743 5741 5738 5736 5733 5731 5728 5725 5722 5719 5717 5714 5712 5709 5706 5703
5760 5761 5762 5763 5763 5764 5764 5765 5765 5765 5764 5764 5763 5762 5760 5759 5758 5756 5754 5752 5750 5748 5746 5744 5742 5740 5738 5736 5733 5731 5729 5726 5724 5721 5718 5715 5712 5709 5707 5704 5701 5699 5696 5694
5752 5753 5754 5755 5755 5756 5756 5756 5757 5756 5755 5755 5754 5753 5752 5751 5750 5748 5746 5744 5742 5740 5737 5735 5733 5731 5729 5726 5724 5721 5719 5717 5714 5711 5708 5706 5703 5700 5697 5694 5691 5689 5686 5684
5744 5745 5746 5747 5748 5748 5748 5748 5748 5748 5747 5746 5746 5745 5744 5742 5741 5739 5737 5735 5733 5731 5729 5726 5724 5722 5719 5716 5714 5712 5710 5707 5704 5701 5698 5696 5693 5690 5687 5685 5682 5679 5677 5674
5737 5738 5739 5740 5740 5741 5741 5740 5740 5740 5739 5738 5737 5736 5735 5734 5732 5731 5729 5727 5725 5723 5720 5718 5715 5713 5710 5707 5705 5702 5700 5697 5694 5692 5689 5686 5684 5681 5678 5675 5673 5670 5668 5666
5730 5731 5732 5732 5733 5733 5733 5732 5732 5731 5731 5730 5729 5728 5727 5726 5724 5723 5721 5718 5716 5714 5712 5710 5707 5704 5702 5699 5696 5694 5691 5688 5685 5683 5680 5678 5675 5672 5670 5667 5664 5662 5660 5658
5723 5724 5725 5725 5725 5725 5724 5724 5724 5723 5723 5722 5721 5720 5719 5717 5716 5714 5712 5710 5708 5706 5704 5702 5699 5697 5694 5692 5689 5686 5683 5680 5677 5675 5672 5669 5667 5664 5661 5659 5656 5654 5652 5649
5717 5717 5718 5718 5718 5717 5717 5717 5716 5715 5715 5714 5713 5712 5711 5709 5707 5706 5704 5702 5700 5698 5696 5694 5691 5689 5687 5684 5681 5679 5676 5673 5670 5667 5664 5662 5659 5656 5654 5651 5649 5646 5644 5641
5711 5711 5711 5711 5711 5710 5710 5709 5709 5708 5707 5706 5705 5704 5702 5701 5699 5698 5696 5694 5692 5690 5688 5686 5684 5681 5679 5676 5674 5671 5668 5665 5662 5660 5657 5654 5652 5649 5646 5643 5641 5638 5636 5633
5705 5704 5704 5704 5704 5703 5703 5702 5701 5700 5699 5698 5697 5695 5694 5692 5691 5689 5687 5686 5684 5682 5680 5678 5676 5674 5671 5669 5666 5664 5661 5658 5655 5652 5649 5647 5644 5641 5639 5636 5633 5630 5628 5625
5698 5698 5698 5697 5697 5696 5695 5694 5693 5692 5691 5690 5688 5687 5685 5684 5682 5680 5678 5677 5675 5674 5672 5670 5668 5666 5664 5661 5659 5656 5653 5650 5648 5645 5642 5639 5636 5634 5631 5628 5625 5623 5620 5617
5691 5691 5691 5691 5690 5689 5688 5687 5686 5685 5684 5682 5681 5679 5678 5676 5674 5672 5671 5669 5668 5666 5665 5663 5660 5658 5656 5654 5651 5649 5646 5643 5640 5637 5634 5632 5629 5626 5623 5621 5618 5615 5612 5609
5684 5685 5685 5684 5684 5683 5682 5681 5679 5678 5677 5676 5674 5673 5671 5669 5668 5666 5664 5663 5661 5659 5657 5655 5653 5651 5648 5646 5644 5641 5639 5636 5633 5630 5627 5624 5622 5619 5616 5613 5610 5607 5604 5602
5679 5679 5679 5679 5678 5677 5676 5674 5673 5672 5671 5669 5668 5666 5665 5663 5662 5660 5658 5656 5654 5652 5650 5647 5645 5643 5641 5638 5636 5634 5631 5628 5625 5623 5620 5617 5614 5612 5609 5606 5602 5599 5597 5594